SCP
0 0 0 0 0 0 0 0 0 0 0 0 0 0 0 0 0 0 0 0 0 0 0 0 0 0 0 0 1 1 1 1 1 1 0 0 0 0 0 0 0 0 0 0
0 0 0 0 0 0 0 0 0 0 0 0 0 0 0 0 0 0 0 0 0 0 0 0 0 0 0 0 1 1 1 1 1 1 0 0 0 0 0 0 0 0 0 0
0 0 0 0 0 0 0 0 0 0 0 0 0 0 0 0 0 0 0 0 0 0 0 0 0 0 0 0 1 1 0 1 1 1 0 0 0 0 0 0 0 0 0 0
0 0 0 0 0 0 0 0 0 0 0 0 0 0 0 0 0 0 0 0 0 0 0 0 0 0 0 0 1 1 0 0 1 1 0 0 0 0 0 0 0 0 0 0
0 0 0 0 0 0 0 0 0 0 0 0 0 0 0 0 0 0 0 0 0 0 0 0 0 0 0 0 0 0 0 0 0 0 0 0 0 0 0 0 0 0 0 0
0 0 0 0 0 0 0 0 0 0 0 0 0 0 0 0 0 0 0 0 0 0 0 0 0 0 0 0 0 0 0 0 0 0 0 0 0 0 0 0 0 0 0 0
0 0 0 0 0 0 0 0 0 0 0 0 0 0 0 0 0 0 0 0 0 0 0 0 0 0 0 0 0 0 0 0 0 0 0 0 0 0 0 0 0 0 0 0
0 0 0 0 0 0 0 0 0 0 0 0 0 0 0 0 0 0 0 0 0 0 0 0 0 0 0 0 0 0 0 0 0 0 0 0 0 0 0 0 0 0 0 0
0 0 0 0 0 0 0 0 0 0 0 0 0 0 0 0 0 0 0 0 0 0 0 0 0 0 0 0 0 0 0 0 0 0 0 0 0 0 0 0 0 0 0 0
0 0 0 0 0 0 0 0 0 0 0 0 0 0 0 0 0 0 0 0 0 0 0 0 0 0 0 0 0 0 0 0 0 0 0 0 0 0 0 0 0 0 0 0
0 0 0 0 0 0 0 0 0 0 0 0 0 0 0 0 0 0 0 0 0 0 0 0 0 0 0 0 0 0 0 0 0 0 0 0 0 0 0 0 0 0 0 0
0 0 0 0 0 0 0 0 0 0 0 0 0 0 0 0 0 0 0 0 0 0 0 0 0 0 0 0 0 0 0 0 0 0 0 0 0 0 0 0 0 0 0 0
0 0 0 0 0 0 0 0 0 0 0 0 0 0 0 0 0 0 0 0 0 0 0 0 0 0 0 0 0 0 0 0 0 0 0 0 0 0 0 0 0 0 0 0
0 0 0 0 0 0 0 0 0 0 0 0 0 0 0 0 0 0 0 0 0 0 0 0 0 0 0 0 0 0 0 0 0 0 0 0 0 0 0 0 0 0 0 0
0 0 0 0 0 0 0 0 0 0 0 0 0 0 0 0 0 0 0 0 0 0 0 0 0 0 0 0 0 0 0 0 0 0 0 0 0 0 0 0 0 0 0 0
0 0 0 0 0 0 0 0 0 0 0 0 0 0 0 0 0 0 0 0 0 0 0 0 0 0 0 0 0 0 0 0 0 0 0 0 0 0 0 0 0 0 0 0
0 0 0 0 0 0 0 0 0 0 0 0 0 0 0 0 0 0 0 0 0 0 0 0 0 0 0 0 0 0 0 0 0 0 0 0 0 0 0 0 0 0 0 0
0 0 0 0 0 0 0 0 0 0 0 0 0 0 0 0 0 0 0 0 0 0 0 0 0 0 0 0 0 0 0 0 0 0 0 0 0 0 0 0 0 0 0 0
0 0 0 0 0 0 0 0 0 0 0 0 0 0 0 0 0 0 0 0 0 0 0 0 0 0 0 0 0 0 0 0 0 0 0 0 0 0 0 0 0 0 0 0
0 0 0 0 0 0 0 0 0 0 0 0 0 0 0 0 0 0 0 0 0 0 0 0 0 0 0 0 0 0 0 0 0 0 0 0 0 0 0 0 0 0 0 0
0 0 0 0 0 0 0 0 0 0 0 0 0 0 0 0 0 0 0 0 0 0 0 0 0 0 0 0 0 0 0 0 0 0 0 0 0 0 0 0 0 0 0 0
0 0 0 0 0 0 0 0 0 0 0 0 0 0 0 0 0 0 0 0 0 0 0 0 0 0 0 0 0 0 0 0 0 0 0 0 0 0 0 0 0 0 0 0
0 0 0 0 0 0 0 0 0 0 0 0 0 0 0 0 0 0 0 0 0 0 0 0 0 0 0 0 0 0 0 0 0 0 0 0 0 0 0 0 0 0 0 0
0 0 0 0 0 0 0 0 0 0 0 0 0 0 0 0 0 0 0 0 0 0 0 0 0 0 0 0 0 0 0 0 0 0 0 0 0 0 0 0 0 0 0 0
0 0 0 0 0 0 0 0 0 0 0 0 0 0 0 0 0 0 0 0 0 0 0 0 0 0 0 0 0 0 0 0 0 0 0 0 0 0 0 0 0 0 0 0
0 0 0 0 0 0 0 0 0 0 0 0 0 0 0 0 0 0 0 0 0 0 0 0 0 0 0 0 0 0 0 0 0 0 0 0 0 0 0 0 0 0 0 0
Wind_Speed
4 4 6 8 9 8 7 7 8 6 2 3 7 10 8 5 4 3 3 2 1 0 1 2 2 2 2 1 1 2 2 1 1 1 0 0 1 1 0 0 1 1 2 2
3 7 8 6 5 7 8 9 10 6 2 4 6 10 8 6 5 4 3 2 1 0 1 1 2 2 1 0 1 1 2 1 1 1 0 0 1 1 1 0 1 1 2 2
7 4 4 6 7 8 9 9 8 6 4 5 6 9 6 4 4 2 2 2 1 1 0 1 1 1 1 1 1 1 1 1 1 1 1 1 0 0 0 0 0 1 1 2
6 6 5 5 6 7 9 5 6 6 5 4 4 6 5 4 4 3 2 2 2 1 0 1 1 1 1 1 0 1 1 1 1 2 1 1 1 1 1 1 1 1 1 1
4 3 5 6 7 6 5 3 5 6 5 5 5 5 6 2 3 3 3 2 1 1 1 1 1 1 1 2 1 1 2 1 1 1 1 1 1 0 0 0 1 1 1 1
5 3 3 4 4 4 4 3 5 4 3 6 8 7 6 3 4 3 3 2 2 1 1 1 2 2 2 2 2 1 1 1 1 1 1 1 1 1 1 1 1 1 1 1
5 4 3 2 3 2 3 2 1 2 4 7 5 6 6 2 0 2 3 2 2 2 1 2 2 2 2 2 2 1 1 1 1 1 1 1 1 2 2 2 2 1 1 1
3 4 3 2 4 3 5 5 4 4 4 3 3 6 4 2 2 3 3 3 3 2 1 2 2 1 1 1 1 1 1 1 1 1 1 1 1 1 1 1 1 2 2 1
2 4 1 2 3 4 4 5 4 3 3 4 5 3 2 2 2 2 3 3 2 1 1 1 2 2 1 1 1 1 1 1 1 1 1 1 1 1 1 1 1 1 1 1
2 4 3 1 2 3 3 2 1 3 3 6 5 4 3 3 3 1 1 0 0 1 2 2 2 2 2 1 2 2 2 1 1 1 1 1 1 1 1 1 1 2 1 1
3 3 3 1 3 3 2 2 3 3 3 3 4 3 0 2 2 2 2 1 1 1 1 1 1 2 2 2 2 2 2 2 2 2 2 2 2 2 1 1 1 2 1 1
3 2 5 5 2 2 3 4 4 3 4 3 4 4 3 4 3 2 1 1 1 2 1 1 1 1 2 2 2 2 2 2 2 2 2 2 2 2 2 2 2 2 2 2
1 2 3 3 1 1 2 3 3 3 2 3 4 5 1 2 2 2 2 2 1 1 1 1 1 1 1 2 2 2 2 2 3 2 2 2 2 2 3 3 3 2 2 2
2 3 4 6 3 1 3 4 4 4 4 5 8 7 4 2 2 2 1 0 0 0 1 1 1 1 2 2 2 2 2 3 3 3 2 2 2 2 3 3 3 3 2 2
1 3 5 7 6 4 5 6 5 7 8 8 8 8 8 4 3 3 1 0 0 1 2 2 2 1 1 2 2 2 2 3 3 3 3 3 3 2 2 3 3 3 3 2
1 3 4 6 6 6 8 9 9 9 8 9 9 11 6 4 3 3 2 1 2 2 2 2 2 2 1 1 2 2 2 3 3 3 3 3 4 3 3 3 3 3 3 2
2 3 3 6 4 5 9 9 9 7 7 7 10 10 6 4 5 4 3 2 2 3 3 2 2 2 2 2 2 2 2 2 2 3 3 3 3 4 4 4 4 4 3 3
4 3 3 3 3 8 6 0 3 7 7 5 6 6 6 5 3 2 2 2 3 3 2 2 2 2 2 3 3 3 2 2 2 3 3 4 4 4 4 4 4 4 3 3
4 4 3 3 6 8 5 2 1 4 5 3 6 7 6 4 3 2 3 2 2 2 2 2 2 2 2 2 3 3 3 3 3 4 4 4 4 4 4 4 4 4 3 3
2 2 3 4 5 6 3 3 2 1 5 3 3 5 5 3 3 3 4 3 3 3 2 2 3 3 2 3 2 2 3 3 4 4 4 4 4 4 4 4 4 4 3 3
2 3 5 7 7 6 3 3 2 2 5 4 2 3 2 2 3 3 3 3 3 3 3 3 3 2 2 2 2 2 2 3 4 4 4 4 4 4 4 4 4 4 3 3
5 4 5 4 6 8 1 2 3 3 3 2 3 3 2 2 2 2 2 2 2 2 2 2 2 2 2 2 2 2 3 4 4 4 4 4 4 4 3 3 4 3 2 2
5 5 4 6 6 2 2 2 1 2 2 2 2 3 3 3 3 3 2 2 2 1 2 2 1 2 3 2 2 2 4 4 4 3 4 4 4 4 4 3 3 2 2 1
3 2 3 5 6 4 2 2 3 3 3 3 3 3 3 3 3 3 2 2 2 2 2 2 2 2 3 3 2 3 4 3 3 3 4 4 3 4 3 3 2 2 2 1
3 2 3 6 5 5 4 3 4 4 3 3 3 3 3 4 4 3 3 2 2 2 2 2 2 2 4 3 3 3 3 3 3 3 3 4 3 3 3 3 2 2 2 2
3 4 5 7 3 4 4 3 4 3 3 3 3 4 4 3 4 4 3 3 2 3 3 3 3 3 4 4 4 4 3 2 2 3 3 3 3 3 2 2 3 4 4 6
Wind_Direction
192 221 225 225 223 249 273 272 269 265 207 224 241 255 259 244 232 235 247 247 217 148 75 67 62 65 52 76 104 132 134 128 116 117 123 161 181 181 183 158 145 170 164 164
209 234 245 252 249 248 250 261 268 274 234 245 261 267 262 243 225 217 221 231 206 69 40 59 61 65 41 58 144 142 144 142 137 115 132 219 175 219 193 153 160 201 163 159
228 251 252 247 250 253 248 247 258 266 280 254 272 276 238 222 215 213 198 196 189 174 290 52 57 70 46 353 169 154 147 138 133 104 94 64 76 50 97 201 230 259 186 157
254 257 264 254 253 249 254 252 257 261 263 253 226 275 261 215 202 201 210 205 206 179 170 78 62 38 26 346 125 132 143 137 143 136 144 158 184 205 257 264 270 270 199 180
254 258 257 252 256 252 255 283 261 252 252 262 230 244 269 226 226 211 198 192 178 137 123 88 86 56 27 24 54 138 135 134 135 158 171 191 216 239 256 268 234 243 223 194
265 285 285 269 273 253 256 263 258 249 240 247 226 216 266 230 228 210 184 158 140 113 87 81 79 73 43 37 31 37 132 143 147 167 175 188 206 223 205 224 228 234 221 206
261 240 248 276 274 240 237 222 257 238 223 240 205 212 246 240 49 144 153 146 109 97 82 72 68 72 50 39 31 27 47 35 162 180 189 215 231 220 221 230 228 238 226 215
271 264 215 245 237 235 225 216 209 230 245 264 212 221 234 151 87 79 92 99 93 84 64 60 64 69 58 40 38 30 17 8 8 217 215 220 238 235 245 253 248 240 235 230
267 270 298 271 279 253 228 225 244 262 275 268 239 216 205 109 91 85 73 68 77 76 51 49 49 49 40 36 42 34 21 10 5 342 298 234 226 250 257 257 254 247 249 248
278 277 270 260 275 270 275 271 227 213 239 254 250 228 233 184 210 183 143 133 320 50 51 44 38 30 28 34 35 35 25 22 16 2 341 321 274 250 255 258 270 271 251 240
285 258 275 216 207 219 209 226 237 235 230 232 261 256 19 135 158 176 191 197 188 116 72 51 34 25 29 36 36 25 28 21 10 360 347 335 317 299 277 272 268 271 260 241
253 254 262 242 220 238 206 220 204 213 246 243 261 263 48 72 75 87 115 97 78 79 55 43 42 36 34 36 28 20 16 13 0 354 351 343 339 333 311 290 278 273 256 248
255 221 276 277 238 246 254 251 241 249 256 236 241 256 105 81 51 50 70 72 55 60 36 28 38 37 31 28 17 10 7 4 357 353 349 346 348 343 323 310 303 295 271 260
302 231 226 242 267 264 254 257 241 222 233 246 240 256 274 311 324 338 35 94 70 16 5 1 9 24 25 21 8 3 2 1 354 347 340 338 336 326 318 320 314 306 289 269
314 254 258 269 280 277 266 258 239 230 238 242 258 258 272 278 277 281 268 237 324 311 325 329 341 354 8 15 12 6 0 357 350 341 337 335 336 332 334 330 318 315 300 283
292 260 274 273 266 265 270 260 244 242 245 250 267 269 275 290 293 299 293 255 271 278 290 301 315 336 347 359 357 353 350 352 351 340 337 343 345 344 341 331 326 323 308 301
224 222 250 266 277 289 266 249 231 228 228 229 248 261 292 289 287 284 295 292 285 295 302 299 317 334 343 349 347 329 333 347 351 345 344 347 344 340 335 334 332 323 315 311
218 230 237 271 297 250 243 242 207 221 235 242 260 277 277 277 292 315 3 340 327 326 326 327 332 341 359 13 1 352 357 359 356 351 345 345 344 337 334 333 327 319 314 308
224 217 231 236 252 263 276 293 262 232 254 261 266 283 296 302 309 315 358 350 321 320 335 344 353 9 23 17 359 0 2 4 359 348 341 340 337 332 328 325 321 315 312 310
264 233 229 235 249 249 273 319 312 243 259 314 281 284 304 334 283 286 351 357 4 7 16 24 26 34 32 8 10 17 4 1 344 332 329 330 328 322 316 315 315 314 311 310
209 229 230 236 245 256 287 311 41 178 269 334 324 309 322 265 265 306 346 357 5 9 17 28 32 29 9 5 24 13 357 332 322 327 328 330 327 319 316 316 316 319 319 318
187 197 212 216 235 251 5 97 183 246 324 343 347 345 330 298 308 329 338 340 350 3 11 18 23 7 4 13 21 348 322 320 331 330 330 328 326 325 325 322 318 319 318 317
208 211 215 213 226 274 154 199 264 341 315 320 331 331 318 304 299 305 311 312 316 331 348 3 9 354 357 7 4 311 313 330 330 328 324 322 324 329 329 321 317 325 332 333
239 253 247 254 260 272 254 286 326 334 314 318 327 326 322 300 297 298 295 302 313 330 339 353 358 337 327 340 340 314 318 328 324 317 316 319 322 325 328 322 321 323 320 326
240 220 244 256 280 303 275 284 303 311 323 330 329 322 315 305 295 293 293 301 310 321 330 337 322 307 309 320 320 319 321 323 316 312 310 313 313 313 316 323 321 313 308 306
216 207 219 243 248 251 278 319 317 298 302 311 317 318 323 312 296 301 298 304 307 307 317 317 308 304 308 314 309 313 313 303 293 299 303 302 302 306 311 319 334 345 342 344